Weather History for Ahmedabad, India

Change the Weather History Date:

Saturday, December 10, 2011

  Actual Average Record
Temperature  
Mean Temperature 74 °F -  
Max Temperature 85 °F 80 °F 89 °F (2000)
Min Temperature 62 °F 54 °F 39 °F (2000)
Cooling Degree Days 8    
Growing Degree Days 24 (Base 50)    
Moisture  
Dew Point 49 °F    
Average Humidity 43    
Maximum Humidity 73    
Minimum Humidity 18    
Precipitation  
Precipitation 0.00 in 0.01 in - ()
Sea Level Pressure  
Sea Level Pressure 29.93 in    
Wind  
Wind Speed 3 mph ()    
Max Wind Speed 7 mph    
Max Gust Speed -    
Visibility 2.5 miles    
Events      
Averages and records for this station are not official NWS values.
T = Trace of Precipitation, MM = Missing Value Source: Averaged Metar Reports

Daily Weather History Graph

Daily Weather History Graph

Search for Another Location

Airport:

Trip Planner

Search our weather history database for the weather conditions in past years. The results will help you decide how hot, cold, wet, or windy it might be!

Date:

Astronomy

Dec. 10, 2011 Rise Set
Actual Time 7:09 AM IST 5:54 PM IST
Civil Twilight 6:44 AM IST 6:19 PM IST
Nautical Twilight 6:16 AM IST 6:47 PM IST
Astronomical Twilight 5:49 AM IST 7:14 PM IST
Moon 5:46 PM IST (12/10) 6:44 AM IST (12/10)
Length of Visible Light 11h 34m
Length of Day
10h 45m
Full, 100% of the Moon is Illuminated
Dec 10
Full
Dec 10
Full
Dec 18
Last Quarter
Dec 24
New
Jan 1
First Quarter

Hourly Weather History & Observations

Time (IST) Temp. Dew Point Humidity Pressure Visibility Wind Dir Wind Speed Gust Speed Precip Events Conditions
12:10 AM 73.4 °F 59.0 °F 61% 29.92 in 2.5 mi NNW 3.5 mph - N/A   Haze
12:40 AM 73.4 °F 59.0 °F 61% 29.92 in 2.5 mi NE 3.5 mph - N/A   Haze
1:10 AM 71.6 °F 59.0 °F 64% 29.92 in 2.5 mi NNE 4.6 mph - N/A   Haze
1:40 AM 71.6 °F 60.8 °F 69% 29.92 in 2.5 mi North 3.5 mph - N/A   Haze
2:10 AM 69.8 °F 59.0 °F 68% 29.92 in 2.5 mi North 3.5 mph - N/A   Haze
2:30 AM 69 °F 58 °F 60% 29.91 in 2 mi Calm Calm - -   Haze
2:40 AM 69.8 °F 59.0 °F 68% 29.92 in 2.5 mi NE 3.5 mph - N/A   Haze
3:10 AM 69.8 °F 55.4 °F 60% 29.92 in 2.5 mi NE 3.5 mph - N/A   Haze
3:40 AM 68.0 °F 55.4 °F 64% 29.92 in 2.5 mi NE 5.8 mph - N/A   Haze
4:10 AM 68.0 °F 53.6 °F 60% 29.89 in 2.5 mi NE 4.6 mph - N/A   Haze
4:40 AM 68.0 °F 55.4 °F 64% 29.92 in 2.5 mi NE 4.6 mph - N/A   Haze
5:10 AM 68.0 °F 55.4 °F 64% 29.92 in 2.5 mi NNE 4.6 mph - N/A   Haze
5:30 AM 67 °F 54 °F 54% 29.89 in 2 mi Calm Calm - -   Haze
5:40 AM 68.0 °F 55.4 °F 64% 29.92 in 2.5 mi NNE 3.5 mph - N/A   Haze
6:10 AM 66.2 °F 55.4 °F 68% 29.92 in 2.5 mi ENE 3.5 mph - N/A   Haze
6:40 AM 66.2 °F 55.4 °F 68% 29.95 in 1.9 mi NE 3.5 mph - N/A   Haze
7:10 AM - - N/A% 29.95 in 1.6 mi NE 3.5 mph - N/A   Haze
7:40 AM 66.2 °F 55.4 °F 68% 29.98 in 1.2 mi NE 4.6 mph - N/A   Haze
8:10 AM 66.2 °F 57.2 °F 73% 29.98 in 1.2 mi NNE 3.5 mph - N/A   Haze
8:30 AM 67 °F 55 °F 57% 29.99 in 1 mi Calm Calm - -   Haze
8:40 AM 69.8 °F 53.6 °F 56% 30.01 in 1.2 mi Calm Calm - N/A   Haze
9:40 AM 75.2 °F 46.4 °F 36% 30.01 in 2.5 mi ENE 3.5 mph - N/A   Smoke
10:40 AM 80.6 °F 42.8 °F 26% 30.01 in 2.5 mi East 6.9 mph - N/A   Smoke
11:30 AM 80 °F 50 °F 24% 30.01 in 2 mi NE 3.5 mph - -  
11:40 AM 84.2 °F 42.8 °F 23% 29.98 in 3.1 mi NE 4.6 mph - N/A   Smoke
12:10 PM 84.2 °F 41.0 °F 22% 29.98 in 3.1 mi NE 5.8 mph - N/A   Smoke
12:40 PM 84.2 °F 41.0 °F 22% 29.95 in 3.1 mi NE 4.6 mph - N/A   Smoke
1:10 PM 84.2 °F 42.8 °F 23% 29.95 in 3.1 mi NE 3.5 mph - N/A   Smoke
1:40 PM 86.0 °F 41.0 °F 20% 29.92 in 3.1 mi NNE 4.6 mph - N/A   Smoke
2:10 PM 87.8 °F 41.0 °F 19% 29.92 in 3.7 mi Variable 2.3 mph - N/A   Unknown
2:30 PM 84 °F 48 °F 18% 29.93 in 2 mi Calm Calm - -  
2:40 PM - - N/A% 29.89 in 3.7 mi Variable 2.3 mph - N/A   Unknown
3:10 PM 86.0 °F 41.0 °F 20% 29.89 in 3.7 mi NNE 2.3 mph - N/A   Unknown
3:40 PM 86.0 °F 39.2 °F 19% 29.89 in 3.7 mi Variable 2.3 mph - N/A   Unknown
4:10 PM 86.0 °F 41.0 °F 20% 29.89 in 3.7 mi Variable 2.3 mph - N/A   Unknown
4:40 PM 84.2 °F 42.8 °F 23% 29.89 in 3.7 mi NW 3.5 mph - N/A   Unknown
5:10 PM 82.4 °F 42.8 °F 25% 29.89 in 3.1 mi NNW 2.3 mph - N/A   Unknown
5:30 PM 81 °F 52 °F 25% 29.92 in 2 mi North 4.6 mph - -  
5:40 PM 82.4 °F 42.8 °F 25% 29.89 in 3.4 mi NNW 3.5 mph - N/A   Unknown
6:40 PM 78.8 °F 44.6 °F 30% 29.92 in 2.5 mi NNE 3.5 mph - N/A   Smoke
7:10 PM 77.0 °F 46.4 °F 34% 29.95 in 2.5 mi NNW 3.5 mph - N/A   Smoke
7:40 PM 75.2 °F 46.4 °F 36% 29.95 in 2.5 mi North 3.5 mph - N/A   Smoke
8:10 PM 73.4 °F 42.8 °F 33% 29.95 in 2.5 mi NNE 3.5 mph - N/A   Smoke
8:30 PM 72 °F 45 °F 27% 29.96 in 2 mi Calm Calm - -   Smoke
8:40 PM 73.4 °F 42.8 °F 33% 29.95 in 2.5 mi NNE 3.5 mph - N/A   Smoke
9:10 PM 71.6 °F 41.0 °F 33% 29.95 in 2.5 mi NNE 3.5 mph - N/A   Smoke
9:40 PM 69.8 °F 41.0 °F 35% 29.68 in 2.5 mi NNE 3.5 mph - N/A   Smoke
10:40 PM 66.2 °F 42.8 °F 43% 29.95 in 2.5 mi NNE 5.8 mph - N/A   Smoke
11:10 PM 64.4 °F 42.8 °F 45% 29.95 in 2.5 mi NNE 4.6 mph - N/A   Smoke
11:30 PM 66 °F 43 °F 31% 29.98 in 2 mi NNW 3.5 mph - -   Smoke